sat.trackr.live / text

‹ back to catalog

STARLINK-11191 [DTC]

NORAD 60410 · 2024-141N

PAYLOAD ACTIVE UNKNOWN

§ Identity

Operator
Country
US
Launch date
2024-08-10
Launch site
AFETR
Launch vehicle
Mass (kg)
RCS (m²)

Purposes: comms

External: N2YO · Heavens-Above · Gunter

§ Orbital elements

Epoch: 2026-05-25T02:08:21.881760Z

Period
91.74 min
Inclination
53.1588°
Eccentricity
0.0001087
Mean motion
15.69711438 rev/d
Perigee alt
359.0 km
Apogee alt
360.5 km
Semi-major
6,737.9 km
B*
1.2632e-5
RAAN
69.5359°
Arg perigee
84.6139°
Mean anomaly
275.5003°
Rev number
10,374

§ Raw data

STARLINK-11191 [DTC]1 60410U 24141N   26145.08914215  .00000942  00000+0  12632-4 0  99932 60410  53.1588  69.5359 0001087  84.6139 275.5003 15.69711438103749

JSON: /api/v1/satellites/60410 · /tle

For live sub-satellite position, see the globe view (requires WebGL).

§ Visibility from observer

Set your observer location to see the next 7 days of passes ≥ 10°. The values pass through the URL so the page stays shareable.

No JS? Fill the form by hand. The geolocation button needs JavaScript.